Time,TemperatureF,DewpointF,PressureIn,WindDirection,WindDirectionDegrees,WindSpeedMPH,WindSpeedGustMPH,Humidity,HourlyPrecipIn,Conditions,Clouds,dailyrainin,SoftwareType,DateUTC
2013-02-20 00:00:00,32.9,32.4,29.62,South,179,0.0,5.0,98,0.00,,,0.00,Wunderground v.1.15,2013-02-20 05:00:00,
2013-02-20 00:09:00,32.8,32.3,29.62,SSE,163,0.0,5.0,98,0.00,,,0.00,Wunderground v.1.15,2013-02-20 05:09:00,
2013-02-20 00:20:00,32.5,32.0,29.63,East,88,1.0,5.0,98,0.00,,,0.00,Wunderground v.1.15,2013-02-20 05:20:00,
2013-02-20 00:30:00,32.4,31.9,29.64,WSW,237,2.0,5.0,98,0.00,,,0.00,Wunderground v.1.15,2013-02-20 05:30:00,
2013-02-20 00:40:00,31.9,31.4,29.64,WSW,247,3.0,5.0,98,0.00,,,0.01,Wunderground v.1.15,2013-02-20 05:40:00,
2013-02-20 00:49:00,31.3,30.5,29.65,West,262,3.0,5.0,97,0.00,,,0.01,Wunderground v.1.15,2013-02-20 05:49:00,
2013-02-20 01:00:00,30.9,29.9,29.64,NW,306,3.0,3.0,96,0.00,,,0.01,Wunderground v.1.15,2013-02-20 06:00:00,
2013-02-20 01:10:00,30.6,29.6,29.64,WNW,291,1.0,1.0,96,0.00,,,0.01,Wunderground v.1.15,2013-02-20 06:10:00,
2013-02-20 01:19:00,30.4,29.4,29.65,West,275,1.0,1.0,96,0.00,,,0.01,Wunderground v.1.15,2013-02-20 06:19:00,
2013-02-20 01:29:00,30.3,28.8,29.65,West,261,2.0,2.0,94,0.00,,,0.01,Wunderground v.1.15,2013-02-20 06:29:00,
2013-02-20 01:40:00,30.3,28.8,29.65,West,260,0.0,5.0,94,0.00,,,0.01,Wunderground v.1.15,2013-02-20 06:40:00,
2013-02-20 01:50:00,30.3,29.0,29.65,SW,230,0.0,5.0,95,0.00,,,0.01,Wunderground v.1.15,2013-02-20 06:50:00,
2013-02-20 01:59:00,30.0,28.7,29.66,SSE,164,2.0,2.0,95,0.00,,,0.01,Wunderground v.1.15,2013-02-20 06:59:00,
2013-02-20 02:10:00,29.5,28.0,29.66,SSE,152,0.0,5.0,94,0.00,,,0.01,Wunderground v.1.15,2013-02-20 07:10:00,
2013-02-20 02:20:00,29.4,27.9,29.66,ESE,113,1.0,1.0,94,0.00,,,0.01,Wunderground v.1.15,2013-02-20 07:20:00,
2013-02-20 02:30:00,29.4,27.4,29.67,ESE,121,0.0,5.0,92,0.00,,,0.01,Wunderground v.1.15,2013-02-20 07:30:00,
2013-02-20 02:39:00,29.3,26.7,29.67,SW,222,0.0,5.0,90,0.00,,,0.01,Wunderground v.1.15,2013-02-20 07:39:00,
2013-02-20 02:50:00,29.1,26.5,29.67,SW,231,0.0,5.0,90,0.00,,,0.01,Wunderground v.1.15,2013-02-20 07:50:00,
2013-02-20 03:00:00,28.8,26.0,29.67,SW,220,1.0,5.0,89,0.00,,,0.01,Wunderground v.1.15,2013-02-20 08:00:00,
2013-02-20 03:10:00,28.5,25.7,29.67,WSW,243,1.0,1.0,89,0.00,,,0.01,Wunderground v.1.15,2013-02-20 08:10:00,
2013-02-20 03:20:00,28.1,24.7,29.68,South,175,2.0,2.0,87,0.00,,,0.01,Wunderground v.1.15,2013-02-20 08:20:00,
2013-02-20 03:30:00,27.8,23.3,29.68,SSW,205,2.0,2.0,83,0.00,,,0.01,Wunderground v.1.15,2013-02-20 08:30:00,
2013-02-20 03:39:00,27.6,22.5,29.68,SW,229,2.0,2.0,81,0.00,,,0.01,Wunderground v.1.15,2013-02-20 08:39:00,
2013-02-20 03:49:00,27.3,21.6,29.69,SW,229,2.0,2.0,79,0.00,,,0.01,Wunderground v.1.15,2013-02-20 08:49:00,
2013-02-20 04:00:00,27.0,21.4,29.69,NE,47,2.0,5.0,79,0.00,,,0.01,Wunderground v.1.15,2013-02-20 09:00:00,
2013-02-20 04:10:00,26.7,21.4,29.69,NW,309,1.0,5.0,80,0.00,,,0.01,Wunderground v.1.15,2013-02-20 09:10:00,
2013-02-20 04:19:00,26.7,20.1,29.69,WSW,249,2.0,2.0,76,0.00,,,0.01,Wunderground v.1.15,2013-02-20 09:19:00,
2013-02-20 04:29:00,26.7,20.5,29.69,SSW,212,2.0,2.0,77,0.00,,,0.01,Wunderground v.1.15,2013-02-20 09:29:00,
2013-02-20 04:40:00,26.6,20.1,29.69,SW,225,1.0,5.0,76,0.00,,,0.01,Wunderground v.1.15,2013-02-20 09:40:00,
2013-02-20 04:50:00,26.4,19.9,29.69,South,177,1.0,1.0,76,0.00,,,0.01,Wunderground v.1.15,2013-02-20 09:50:00,
2013-02-20 04:59:00,26.3,20.7,29.69,SSE,166,1.0,1.0,79,0.00,,,0.01,Wunderground v.1.15,2013-02-20 09:59:00,
2013-02-20 05:10:00,26.1,20.2,29.69,SW,231,2.0,5.0,78,0.00,,,0.01,Wunderground v.1.15,2013-02-20 10:10:00,
2013-02-20 06:00:00,25.3,20.3,29.68,SE,136,1.0,1.0,81,0.00,,,0.01,Wunderground v.1.15,2013-02-20 11:00:00,
2013-02-20 06:10:00,25.1,20.1,29.68,South,170,3.0,5.0,81,0.00,,,0.01,Wunderground v.1.15,2013-02-20 11:10:00,
2013-02-20 06:19:00,25.1,19.8,29.69,SSE,154,2.0,5.0,80,0.00,,,0.01,Wunderground v.1.15,2013-02-20 11:19:00,
2013-02-20 06:30:00,25.1,19.8,29.69,SSE,150,2.0,2.0,80,0.00,,,0.01,Wunderground v.1.15,2013-02-20 11:30:00,
2013-02-20 06:40:00,25.0,19.7,29.69,SSW,193,1.0,1.0,80,0.00,,,0.01,Wunderground v.1.15,2013-02-20 11:40:00,
2013-02-20 06:50:00,24.8,19.8,29.69,SSE,149,1.0,1.0,81,0.00,,,0.01,Wunderground v.1.15,2013-02-20 11:50:00,
2013-02-20 06:59:00,24.7,20.0,29.69,SSE,152,1.0,5.0,82,0.00,,,0.01,Wunderground v.1.15,2013-02-20 11:59:00,
2013-02-20 07:09:00,24.7,20.0,29.69,ESE,104,3.0,3.0,82,0.00,,,0.01,Wunderground v.1.15,2013-02-20 12:09:00,
2013-02-20 07:20:00,24.7,20.3,29.69,SE,145,2.0,5.0,83,0.00,,,0.01,Wunderground v.1.15,2013-02-20 12:20:00,
2013-02-20 07:30:00,24.7,20.3,29.69,SSE,149,2.0,5.0,83,0.00,,,0.01,Wunderground v.1.15,2013-02-20 12:30:00,
2013-02-20 07:40:00,24.8,20.1,29.69,South,181,2.0,5.0,82,0.00,,,0.01,Wunderground v.1.15,2013-02-20 12:40:00,
2013-02-20 07:50:00,25.0,20.3,29.69,SSE,158,2.0,6.0,82,0.00,,,0.01,Wunderground v.1.15,2013-02-20 12:50:00,
2013-02-20 08:00:00,25.1,20.4,29.69,SE,145,3.0,5.0,82,0.00,,,0.01,Wunderground v.1.15,2013-02-20 13:00:00,
2013-02-20 08:10:00,25.0,20.0,29.69,ESE,115,4.0,5.0,81,0.00,,,0.01,Wunderground v.1.15,2013-02-20 13:10:00,
2013-02-20 08:20:00,25.1,20.4,29.70,SSE,152,2.0,2.0,82,0.00,,,0.01,Wunderground v.1.15,2013-02-20 13:20:00,
2013-02-20 08:30:00,25.0,19.7,29.70,ESE,121,3.0,5.0,80,0.00,,,0.01,Wunderground v.1.15,2013-02-20 13:30:00,
2013-02-20 08:39:00,25.6,20.0,29.70,SE,126,2.0,5.0,79,0.00,,,0.01,Wunderground v.1.15,2013-02-20 13:39:00,
2013-02-20 08:50:00,25.1,19.2,29.70,SE,138,5.0,5.0,78,0.00,,,0.01,Wunderground v.1.15,2013-02-20 13:50:00,
2013-02-20 09:00:00,25.7,20.1,29.70,South,189,2.0,2.0,79,0.00,,,0.01,Wunderground v.1.15,2013-02-20 14:00:00,
2013-02-20 09:10:00,25.7,19.8,29.70,ESE,121,4.0,5.0,78,0.00,,,0.01,Wunderground v.1.15,2013-02-20 14:10:00,
2013-02-20 09:20:00,25.7,19.8,29.70,South,170,4.0,5.0,78,0.00,,,0.01,Wunderground v.1.15,2013-02-20 14:20:00,
2013-02-20 09:29:00,25.6,19.4,29.70,South,170,4.0,4.0,77,0.00,,,0.01,Wunderground v.1.15,2013-02-20 14:29:00,
2013-02-20 09:39:00,25.6,19.1,29.70,SE,143,4.0,4.0,76,0.00,,,0.01,Wunderground v.1.15,2013-02-20 14:39:00,
2013-02-20 09:50:00,25.8,19.3,29.70,South,186,3.0,5.0,76,0.00,,,0.01,Wunderground v.1.15,2013-02-20 14:50:00,
2013-02-20 10:00:00,26.1,19.3,29.70,ESE,112,2.0,7.0,75,0.00,,,0.01,Wunderground v.1.15,2013-02-20 15:00:00,
2013-02-20 10:10:00,26.6,19.4,29.70,SSE,150,3.0,5.0,74,0.00,,,0.01,Wunderground v.1.15,2013-02-20 15:10:00,
2013-02-20 10:20:00,27.0,19.8,29.70,South,175,4.0,4.0,74,0.00,,,0.01,Wunderground v.1.15,2013-02-20 15:20:00,
2013-02-20 10:30:00,26.4,19.2,29.70,SSE,162,4.0,4.0,74,0.00,,,0.01,Wunderground v.1.15,2013-02-20 15:30:00,
2013-02-20 10:40:00,26.4,19.9,29.70,SE,126,4.0,4.0,76,0.00,,,0.01,Wunderground v.1.15,2013-02-20 15:40:00,
2013-02-20 10:49:00,26.1,19.9,29.70,SSE,147,4.0,10.0,77,0.00,,,0.01,Wunderground v.1.15,2013-02-20 15:49:00,
2013-02-20 10:59:00,26.3,18.8,29.70,SE,141,4.0,4.0,73,0.00,,,0.01,Wunderground v.1.15,2013-02-20 15:59:00,
2013-02-20 11:09:00,26.6,18.5,29.70,ESE,114,4.0,6.0,71,0.00,,,0.01,Wunderground v.1.15,2013-02-20 16:09:00,
2013-02-20 11:19:00,26.1,17.6,29.70,SSE,158,4.0,4.0,70,0.00,,,0.01,Wunderground v.1.15,2013-02-20 16:19:00,
2013-02-20 11:30:00,26.0,17.9,29.70,SSW,200,3.0,5.0,71,0.00,,,0.01,Wunderground v.1.15,2013-02-20 16:30:00,
2013-02-20 11:40:00,26.0,17.6,29.70,South,171,1.0,1.0,70,0.00,,,0.01,Wunderground v.1.15,2013-02-20 16:40:00,
2013-02-20 11:49:00,26.0,17.9,29.70,SW,214,3.0,5.0,71,0.00,,,0.01,Wunderground v.1.15,2013-02-20 16:49:00,
2013-02-20 11:59:00,26.0,17.2,29.70,West,266,3.0,5.0,69,0.00,,,0.01,Wunderground v.1.15,2013-02-20 16:59:00,
2013-02-20 12:10:00,26.3,17.5,29.70,SSW,212,2.0,10.0,69,0.00,,,0.01,Wunderground v.1.15,2013-02-20 17:10:00,
2013-02-20 12:20:00,26.6,16.1,29.70,SSW,193,3.0,3.0,64,0.00,,,0.01,Wunderground v.1.15,2013-02-20 17:20:00,
2013-02-20 12:29:00,26.1,16.3,29.70,West,272,4.0,8.0,66,0.00,,,0.01,Wunderground v.1.15,2013-02-20 17:29:00,
2013-02-20 12:40:00,26.0,16.5,29.70,South,187,4.0,4.0,67,0.00,,,0.01,Wunderground v.1.15,2013-02-20 17:40:00,
2013-02-20 12:50:00,25.8,15.6,29.70,SW,219,3.0,3.0,65,0.00,,,0.01,Wunderground v.1.15,2013-02-20 17:50:00,
2013-02-20 13:00:00,25.7,17.3,29.71,WSW,245,2.0,5.0,70,0.00,,,0.01,Wunderground v.1.15,2013-02-20 18:00:00,
2013-02-20 13:09:00,25.6,17.5,29.71,SW,233,3.0,3.0,71,0.00,,,0.01,Wunderground v.1.15,2013-02-20 18:09:00,
2013-02-20 13:20:00,26.3,17.5,29.70,SSW,192,1.0,5.0,69,0.00,,,0.01,Wunderground v.1.15,2013-02-20 18:20:00,
2013-02-20 13:30:00,26.3,16.5,29.70,SSW,203,5.0,5.0,66,0.00,,,0.01,Wunderground v.1.15,2013-02-20 18:30:00,
2013-02-20 13:40:00,25.8,17.4,29.70,NW,306,4.0,4.0,70,0.00,,,0.01,Wunderground v.1.15,2013-02-20 18:40:00,
2013-02-20 13:49:00,25.1,17.7,29.71,NW,325,3.0,3.0,73,0.00,,,0.01,Wunderground v.1.15,2013-02-20 18:49:00,
2013-02-20 14:00:00,25.7,17.3,29.71,SSW,199,4.0,4.0,70,0.00,,,0.01,Wunderground v.1.15,2013-02-20 19:00:00,
2013-02-20 14:10:00,26.3,17.5,29.71,WSW,241,2.0,2.0,69,0.00,,,0.01,Wunderground v.1.15,2013-02-20 19:10:00,
2013-02-20 14:19:00,26.3,17.2,29.71,SSW,195,2.0,5.0,68,0.00,,,0.01,Wunderground v.1.15,2013-02-20 19:19:00,
2013-02-20 14:29:00,26.6,17.8,29.71,SSE,168,2.0,5.0,69,0.00,,,0.01,Wunderground v.1.15,2013-02-20 19:29:00,
2013-02-20 14:40:00,26.3,17.5,29.71,WSW,245,3.0,9.0,69,0.00,,,0.01,Wunderground v.1.15,2013-02-20 19:40:00,
2013-02-20 14:50:00,25.4,17.0,29.72,West,276,4.0,4.0,70,0.00,,,0.01,Wunderground v.1.15,2013-02-20 19:50:00,
2013-02-20 15:00:00,25.8,15.6,29.72,SE,135,4.0,4.0,65,0.00,,,0.01,Wunderground v.1.15,2013-02-20 20:00:00,
2013-02-20 15:09:00,26.3,15.4,29.72,SW,226,2.0,2.0,63,0.00,,,0.01,Wunderground v.1.15,2013-02-20 20:09:00,
2013-02-20 15:19:00,26.4,16.6,29.72,SW,233,3.0,3.0,66,0.00,,,0.01,Wunderground v.1.15,2013-02-20 20:19:00,
2013-02-20 15:29:00,26.0,16.5,29.73,SSE,159,3.0,3.0,67,0.00,,,0.01,Wunderground v.1.15,2013-02-20 20:29:00,
2013-02-20 15:40:00,25.4,17.0,29.73,SSW,212,2.0,6.0,70,0.00,,,0.01,Wunderground v.1.15,2013-02-20 20:40:00,
2013-02-20 15:50:00,25.3,17.5,29.73,ESE,108,2.0,2.0,72,0.00,,,0.01,Wunderground v.1.15,2013-02-20 20:50:00,
2013-02-20 15:59:00,25.4,17.0,29.74,South,182,2.0,2.0,70,0.00,,,0.01,Wunderground v.1.15,2013-02-20 20:59:00,
2013-02-20 16:10:00,25.7,15.6,29.74,WSW,249,3.0,5.0,65,0.00,,,0.01,Wunderground v.1.15,2013-02-20 21:10:00,
2013-02-20 16:20:00,25.7,17.3,29.74,South,170,2.0,2.0,70,0.00,,,0.01,Wunderground v.1.15,2013-02-20 21:20:00,
2013-02-20 16:30:00,25.3,17.2,29.74,SW,226,2.0,5.0,71,0.00,,,0.01,Wunderground v.1.15,2013-02-20 21:30:00,
2013-02-20 16:39:00,25.1,17.0,29.74,SSE,164,1.0,6.0,71,0.00,,,0.01,Wunderground v.1.15,2013-02-20 21:39:00,
2013-02-20 16:50:00,24.4,17.0,29.75,ESE,113,3.0,3.0,73,0.00,,,0.01,Wunderground v.1.15,2013-02-20 21:50:00,
2013-02-20 17:00:00,24.4,17.0,29.75,South,171,2.0,2.0,73,0.00,,,0.01,Wunderground v.1.15,2013-02-20 22:00:00,
2013-02-20 17:10:00,24.4,16.3,29.75,SSW,209,2.0,2.0,71,0.00,,,0.01,Wunderground v.1.15,2013-02-20 22:10:00,
2013-02-20 17:19:00,24.2,15.8,29.76,East,92,2.0,6.0,70,0.00,,,0.01,Wunderground v.1.15,2013-02-20 22:19:00,
2013-02-20 17:30:00,24.4,15.3,29.76,SW,221,2.0,2.0,68,0.00,,,0.01,Wunderground v.1.15,2013-02-20 22:30:00,
2013-02-20 17:40:00,24.4,15.0,29.76,SE,137,1.0,5.0,67,0.00,,,0.01,Wunderground v.1.15,2013-02-20 22:40:00,
2013-02-20 17:50:00,24.2,14.5,29.77,NNW,345,2.0,5.0,66,0.00,,,0.01,Wunderground v.1.15,2013-02-20 22:50:00,
2013-02-20 18:00:00,24.1,14.4,29.78,SE,141,2.0,2.0,66,0.00,,,0.01,Wunderground v.1.15,2013-02-20 23:00:00,
2013-02-20 18:10:00,24.1,14.7,29.78,ENE,60,4.0,4.0,67,0.00,,,0.01,Wunderground v.1.15,2013-02-20 23:10:00,
2013-02-20 18:19:00,23.9,14.2,29.79,SSE,154,4.0,6.0,66,0.00,,,0.01,Wunderground v.1.15,2013-02-20 23:19:00,
2013-02-20 18:30:00,23.9,14.9,29.79,SSE,148,2.0,2.0,68,0.00,,,0.01,Wunderground v.1.15,2013-02-20 23:30:00,
2013-02-20 18:40:00,23.8,14.4,29.79,SSE,154,2.0,2.0,67,0.00,,,0.01,Wunderground v.1.15,2013-02-20 23:40:00,
2013-02-20 18:50:00,23.8,14.4,29.80,ESE,106,2.0,5.0,67,0.00,,,0.01,Wunderground v.1.15,2013-02-20 23:50:00,
2013-02-20 19:00:00,23.8,14.8,29.81,ESE,121,2.0,5.0,68,0.00,,,0.01,Wunderground v.1.15,2013-02-21 00:00:00,
2013-02-20 19:10:00,23.8,14.1,29.81,ESE,111,2.0,5.0,66,0.00,,,0.01,Wunderground v.1.15,2013-02-21 00:10:00,
2013-02-20 19:19:00,23.6,14.6,29.80,ESE,121,3.0,3.0,68,0.00,,,0.01,Wunderground v.1.15,2013-02-21 00:19:00,
2013-02-20 19:29:00,23.5,14.5,29.81,SSE,150,1.0,5.0,68,0.00,,,0.01,Wunderground v.1.15,2013-02-21 00:29:00,
2013-02-20 19:39:00,23.2,14.9,29.81,SSE,157,1.0,5.0,70,0.00,,,0.01,Wunderground v.1.15,2013-02-21 00:39:00,
2013-02-20 19:50:00,23.3,14.3,29.81,SE,126,2.0,2.0,68,0.00,,,0.01,Wunderground v.1.15,2013-02-21 00:50:00,
2013-02-20 20:00:00,23.5,14.5,29.80,ESE,108,3.0,3.0,68,0.00,,,0.01,Wunderground v.1.15,2013-02-21 01:00:00,
2013-02-20 20:09:00,23.5,14.8,29.80,SSE,163,2.0,2.0,69,0.00,,,0.01,Wunderground v.1.15,2013-02-21 01:09:00,
2013-02-20 20:20:00,23.3,14.6,29.81,South,190,2.0,2.0,69,0.00,,,0.01,Wunderground v.1.15,2013-02-21 01:20:00,
2013-02-20 20:30:00,23.5,14.8,29.81,SE,131,2.0,5.0,69,0.00,,,0.01,Wunderground v.1.15,2013-02-21 01:30:00,
2013-02-20 20:40:00,23.5,14.8,29.81,SSE,160,3.0,9.0,69,0.00,,,0.01,Wunderground v.1.15,2013-02-21 01:40:00,
2013-02-20 20:49:00,23.5,14.8,29.81,SE,139,5.0,5.0,69,0.00,,,0.01,Wunderground v.1.15,2013-02-21 01:49:00,
2013-02-20 21:00:00,23.3,14.6,29.81,SSE,158,4.0,5.0,69,0.00,,,0.01,Wunderground v.1.15,2013-02-21 02:00:00,
2013-02-20 21:10:00,23.3,15.0,29.81,SSE,152,3.0,3.0,70,0.00,,,0.01,Wunderground v.1.15,2013-02-21 02:10:00,
2013-02-20 21:20:00,23.3,14.6,29.81,East,101,3.0,5.0,69,0.00,,,0.01,Wunderground v.1.15,2013-02-21 02:20:00,
2013-02-20 21:30:00,23.5,14.5,29.82,South,182,4.0,4.0,68,0.00,,,0.01,Wunderground v.1.15,2013-02-21 02:30:00,
2013-02-20 21:40:00,23.6,14.6,29.82,SSE,153,3.0,5.0,68,0.00,,,0.01,Wunderground v.1.15,2013-02-21 02:40:00,
2013-02-20 21:49:00,23.5,14.5,29.83,SSE,168,2.0,2.0,68,0.00,,,0.01,Wunderground v.1.15,2013-02-21 02:49:00,
2013-02-20 22:10:00,23.3,14.6,29.82,NE,56,3.0,3.0,69,0.00,,,0.01,Wunderground v.1.15,2013-02-21 03:10:00,
2013-02-20 22:19:00,23.3,14.3,29.83,NE,55,3.0,5.0,68,0.00,,,0.01,Wunderground v.1.15,2013-02-21 03:19:00,
2013-02-20 22:30:00,23.3,14.3,29.82,SSE,159,3.0,7.0,68,0.00,,,0.01,Wunderground v.1.15,2013-02-21 03:30:00,
2013-02-20 22:39:00,23.3,14.6,29.82,ESE,117,4.0,4.0,69,0.00,,,0.01,Wunderground v.1.15,2013-02-21 03:39:00,
2013-02-20 22:49:00,23.0,14.3,29.82,South,169,4.0,5.0,69,0.00,,,0.01,Wunderground v.1.15,2013-02-21 03:49:00,
2013-02-20 22:59:00,22.9,14.9,29.83,South,172,4.0,5.0,71,0.00,,,0.01,Wunderground v.1.15,2013-02-21 03:59:00,
2013-02-20 23:10:00,22.7,15.0,29.83,SSE,154,4.0,4.0,72,0.00,,,0.01,Wunderground v.1.15,2013-02-21 04:10:00,
2013-02-20 23:20:00,22.4,15.1,29.83,NE,55,6.0,7.0,73,0.00,,,0.01,Wunderground v.1.15,2013-02-21 04:20:00,
2013-02-20 23:30:00,22.2,15.2,29.83,ESE,102,5.0,5.0,74,0.00,,,0.01,Wunderground v.1.15,2013-02-21 04:30:00,
2013-02-20 23:40:00,22.2,15.5,29.83,ESE,117,5.0,7.0,75,0.00,,,0.01,Wunderground v.1.15,2013-02-21 04:40:00,
2013-02-20 23:49:00,22.1,15.4,29.84,SE,145,4.0,7.0,75,0.00,,,0.01,Wunderground v.1.15,2013-02-21 04:49:00,
2013-02-20 23:59:00,22.1,15.1,29.84,East,95,4.0,4.0,74,0.00,,,0.00,Wunderground v.1.15,2013-02-21 04:59:00,